Location: Allos
(44.2333°N, 6.6333°E)
Time: 14:54:14
(UTC+00:00)

Cosmos 1867 - Visible Passes

Search period start: 20 April 2021 00:00
Search period end: 30 April 2021 00:00
Orbit: 774 x 801 km, 65.0° (Epoch: 19 April)

Date Brightness Start Highest point End Pass type
(mag) Time Alt. Az. Time Alt. Az. Time Alt. Az.
20 Apr 4.9 04:03:47 10° S 04:08:48 40° ESE 04:13:52 10° NE visible
21 Apr 5.3 03:32:37 10° S 03:37:14 29° ESE 03:41:55 10° NE visible
22 Apr 5.7 03:01:41 10° SSE 03:05:43 22° ESE 03:09:48 10° ENE visible
23 Apr 6.0 02:31:05 10° SE 02:34:14 16° ESE 02:37:25 10° ENE visible
24 Apr 6.1 02:01:20 10° ESE 02:02:48 11° ESE 02:04:16 10° E visible
24 Apr 3.8 03:40:01 10° SSW 03:45:27 77° ESE 03:50:56 10° NE visible
25 Apr 4.1 03:09:00 13° SSW 03:13:48 57° ESE 03:19:10 10° NE visible
26 Apr 4.5 02:38:32 18° S 02:42:12 42° ESE 02:47:20 10° NE visible
27 Apr 4.9 02:08:00 21° SSE 02:10:38 31° ESE 02:15:24 10° NE visible
27 Apr 4.1 03:48:51 10° WSW 03:54:03 45° NW 03:59:21 10° NNE visible
28 Apr 5.2 01:37:24 20° SE 01:39:07 23° ESE 01:43:20 10° ENE visible
28 Apr 3.8 03:18:04 17° SW 03:22:17 59° NW 03:27:43 10° NNE visible
29 Apr 5.5 01:06:45 16° ESE 01:07:38 17° ESE 01:11:02 10° ENE visible
29 Apr 3.6 02:47:25 26° SW 02:50:33 78° NW 02:56:04 10° NNE visible
